Weather History for Weaverville, CA

Change the Weather History Date:

Friday, December 28, 2012

  Actual Average (KRDD) Record (KRDD)
Temperature  
Mean Temperature 32 °F -  
Max Temperature 35 °F 54 °F 70 °F (2000)
Min Temperature 28 °F 36 °F 20 °F (1988)
Degree Days  
Heating Degree Days 34    
Cooling Degree Days 0    
Moisture  
Dew Point 30 °F    
Average Humidity 91    
Maximum Humidity 100    
Minimum Humidity 81    
Precipitation  
Precipitation 0.02 in 0.22 in 1.71 in (1991)
Month to date precipitation 5.63  
Year to date precipitation 33.98  
Since 1 July precipitation 13.12  
Sea Level Pressure  
Sea Level Pressure 30.10 in    
Wind  
Wind Speed 0 mph (East)    
Max Wind Speed 4 mph    
Max Gust Speed -    
Visibility 9 miles    
Events      
T = Trace of Precipitation, MM = Missing Value Source: NWS Daily Summary

Daily Weather History Graph

Daily Weather History Graph

Search for Another Location

Airport:

Trip Planner

Search our weather history database for the weather conditions in past years. The results will help you decide how hot, cold, wet, or windy it might be!

Date:

Astronomy

Dec. 28, 2012 Rise Set
Actual Time 7:35 AM PST 4:52 PM PST
Civil Twilight 7:04 AM PST 5:23 PM PST
Nautical Twilight 6:29 AM PST 5:57 PM PST
Astronomical Twilight 5:56 AM PST 6:30 PM PST
Moon 5:34 PM PST (12/28) 7:32 AM PST (12/28)
Length of Visible Light 10h 18m
Length of Day
9h 16m
Full, 100% of the Moon is Illuminated
Dec 28
Full
Jan 4
Last Quarter
Jan 11
New
Jan 18
First Quarter
Jan 26
Full

Hourly Weather History & Observations

Time (PST) Temp. Windchill Dew Point Humidity Pressure Visibility Wind Dir Wind Speed Gust Speed Precip Events Conditions
12:15 AM 28.4 °F - 28.4 °F 100% 30.16 in 9.0 mi Calm Calm - N/A   Unknown
12:35 AM 30.2 °F - 28.4 °F 93% 30.16 in 10.0 mi Calm Calm - N/A   Unknown
12:55 AM 30.2 °F - 28.4 °F 93% 30.15 in 7.0 mi Calm Calm - N/A   Unknown
1:15 AM 30.2 °F - 28.4 °F 93% 30.15 in 6.0 mi Calm Calm - N/A   Unknown
1:35 AM 32.0 °F - 28.4 °F 87% 30.15 in 10.0 mi Calm Calm - N/A   Unknown
1:55 AM 32.0 °F - 28.4 °F 87% 30.15 in 10.0 mi Calm Calm - N/A   Unknown
2:15 AM 32.0 °F - 28.4 °F 87% 30.16 in 10.0 mi Calm Calm - N/A   Unknown
2:35 AM 32.0 °F - 28.4 °F 87% 30.16 in 10.0 mi Calm Calm - N/A   Unknown
2:55 AM 32.0 °F - 28.4 °F 87% 30.15 in 10.0 mi Calm Calm - N/A   Unknown
3:15 AM 32.0 °F - 28.4 °F 87% 30.15 in 10.0 mi Calm Calm - N/A   Unknown
3:35 AM 32.0 °F - 28.4 °F 87% 30.14 in 10.0 mi Calm Calm - N/A   Unknown
3:55 AM 32.0 °F - 28.4 °F 87% 30.14 in 10.0 mi Calm Calm - N/A   Unknown
4:35 AM 30.2 °F - 28.4 °F 93% 30.13 in 10.0 mi Calm Calm - N/A   Unknown
4:55 AM 30.2 °F - 28.4 °F 93% 30.12 in 10.0 mi Calm Calm - N/A   Unknown
5:15 AM 30.2 °F - 28.4 °F 93% 30.12 in 10.0 mi Calm Calm - N/A   Unknown
5:55 AM 30.2 °F - 28.4 °F 93% 30.12 in 10.0 mi Calm Calm - N/A   Unknown
6:15 AM 30.2 °F - 28.4 °F 93% 30.12 in 10.0 mi Calm Calm - N/A   Unknown
6:35 AM 30.2 °F - 28.4 °F 93% 30.12 in 10.0 mi Calm Calm - N/A   Unknown
7:15 AM 30.2 °F - 28.4 °F 93% 30.13 in 10.0 mi Calm Calm - N/A   Unknown
7:35 AM 30.2 °F - 28.4 °F 93% 30.13 in 10.0 mi Calm Calm - N/A   Unknown
7:55 AM 30.2 °F - 28.4 °F 93% 30.13 in 7.0 mi Calm Calm - N/A   Unknown
8:15 AM 32.0 °F - 28.4 °F 87% 30.13 in 3.0 mi Calm Calm - N/A   Unknown
8:35 AM 32.0 °F - 28.4 °F 87% 30.13 in 2.5 mi Calm Calm - N/A   Unknown
8:55 AM 32.0 °F - 28.4 °F 87% 30.13 in 2.0 mi Calm Calm - N/A   Unknown
9:15 AM 32.0 °F - 28.4 °F 87% 30.14 in 3.0 mi Calm Calm - N/A   Unknown
9:35 AM 32.0 °F - 30.2 °F 93% 30.14 in 5.0 mi Calm Calm - N/A   Unknown
9:55 AM 32.0 °F - 30.2 °F 93% 30.13 in 6.0 mi Calm Calm - N/A   Unknown
10:15 AM 32.0 °F 28.7 °F 30.2 °F 93% 30.13 in 7.0 mi SSW 3.5 mph - N/A   Unknown
10:35 AM 32.0 °F - 30.2 °F 93% 30.12 in 7.0 mi Calm Calm - N/A   Unknown
10:55 AM 33.8 °F - 30.2 °F 87% 30.12 in 4.0 mi Calm Calm - N/A   Unknown
11:15 AM 33.8 °F - 30.2 °F 87% 30.11 in 10.0 mi Calm Calm - N/A   Unknown
11:35 AM 35.6 °F - 30.2 °F 81% 30.10 in 9.0 mi Calm Calm - N/A   Unknown
11:55 AM 35.6 °F 32.8 °F 30.2 °F 81% 30.10 in 4.0 mi NE 3.5 mph - N/A   Unknown
12:15 PM 35.6 °F - 32.0 °F 87% 30.09 in 9.0 mi Calm Calm - N/A   Unknown
12:35 PM 35.6 °F - 32.0 °F 87% 30.08 in 4.0 mi Calm Calm - N/A   Unknown
12:55 PM 35.6 °F - 32.0 °F 87% 30.08 in 8.0 mi Calm Calm - N/A   Unknown
1:15 PM 35.6 °F - 32.0 °F 87% 30.07 in 9.0 mi Calm Calm - N/A   Unknown
1:35 PM 35.6 °F - 32.0 °F 87% 30.07 in 10.0 mi Calm Calm - N/A   Unknown
1:55 PM 35.6 °F - 32.0 °F 87% 30.07 in 10.0 mi Calm Calm - N/A   Unknown
2:15 PM 35.6 °F 32.8 °F 32.0 °F 87% 30.07 in 10.0 mi NE 3.5 mph - N/A   Unknown
2:35 PM 35.6 °F - 32.0 °F 87% 30.07 in 10.0 mi Calm Calm - N/A   Unknown
2:55 PM 35.6 °F - 32.0 °F 87% 30.07 in 10.0 mi Calm Calm - N/A   Unknown
3:15 PM 35.6 °F - 32.0 °F 87% 30.07 in 8.0 mi Calm Calm - N/A   Unknown
3:35 PM 35.6 °F - 32.0 °F 87% 30.07 in 9.0 mi Calm Calm - N/A   Unknown
3:55 PM 35.6 °F - 32.0 °F 87% 30.07 in 10.0 mi Calm Calm - N/A   Unknown
4:15 PM 35.6 °F - 32.0 °F 87% 30.07 in 8.0 mi Calm Calm - N/A   Unknown
4:35 PM 33.8 °F - 32.0 °F 93% 30.06 in 6.0 mi Calm Calm - N/A   Unknown
4:55 PM 33.8 °F - 32.0 °F 93% 30.06 in 9.0 mi Calm Calm - N/A   Unknown
5:15 PM 33.8 °F 30.8 °F 32.0 °F 93% 30.06 in 10.0 mi East 3.5 mph - 0.01 in   Unknown
5:35 PM 33.8 °F - 32.0 °F 93% 30.06 in 10.0 mi Calm Calm - 0.01 in   Unknown
5:55 PM 33.8 °F - 32.0 °F 93% 30.06 in 10.0 mi Calm Calm - 0.01 in   Unknown
6:15 PM 33.8 °F - 32.0 °F 93% 30.07 in 10.0 mi Calm Calm - N/A   Unknown
6:35 PM 33.8 °F - 32.0 °F 93% 30.07 in 10.0 mi Calm Calm - N/A   Unknown
6:55 PM 33.8 °F 30.8 °F 32.0 °F 93% 30.07 in 10.0 mi ENE 3.5 mph - N/A   Unknown
7:15 PM 33.8 °F - 32.0 °F 93% 30.07 in 7.0 mi Calm Calm - N/A   Unknown
7:35 PM 33.8 °F - 32.0 °F 93% 30.07 in 8.0 mi Calm Calm - 0.01 in   Unknown
7:55 PM 33.8 °F - 32.0 °F 93% 30.07 in 10.0 mi Calm Calm - 0.01 in   Unknown
8:35 PM 33.8 °F - 32.0 °F 93% 30.07 in 10.0 mi Calm Calm - N/A   Unknown
8:55 PM 33.8 °F - 32.0 °F 93% 30.07 in 10.0 mi Calm Calm - N/A   Unknown
9:15 PM 33.8 °F - 32.0 °F 93% 30.07 in 10.0 mi Calm Calm - N/A   Unknown
9:35 PM 33.8 °F - 32.0 °F 93% 30.07 in 10.0 mi Calm Calm - N/A   Unknown
9:55 PM 33.8 °F - 32.0 °F 93% 30.07 in 10.0 mi Calm Calm - N/A   Unknown
10:15 PM 33.8 °F - 32.0 °F 93% 30.07 in 10.0 mi Calm Calm - N/A   Unknown
10:35 PM 35.6 °F 32.8 °F 32.0 °F 87% 30.07 in 10.0 mi North 3.5 mph - N/A   Unknown
10:55 PM 33.8 °F 30.8 °F 32.0 °F 93% 30.08 in 10.0 mi South 3.5 mph - N/A   Unknown
11:15 PM 32.0 °F - 32.0 °F 100% 30.08 in 10.0 mi Calm Calm - N/A   Unknown
11:35 PM 32.0 °F 28.7 °F 32.0 °F 100% 30.08 in 10.0 mi SSW 3.5 mph - N/A   Unknown
11:55 PM 32.0 °F - 32.0 °F 100% 30.08 in 10.0 mi Calm Calm - N/A   Unknown